Temperature
15 14 14 14 14 14 14 14 14 14 14 14 14 14 13 13 13 13 13 12 12 12 12 12 12 12 12 12 12 12 11 11 11 11 11 11 11 10 10 10 10 10 11
14 14 14 14 14 14 14 14 14 14 14 13 13 13 13 13 13 13 12 12 12 12 12 12 12 12 12 12 12 11 11 11 11 11 11 10 10 10 10 10 10 10 10
14 14 14 14 13 13 13 13 13 13 13 13 13 13 13 13 13 12 12 12 12 12 12 12 12 12 12 12 11 11 11 11 11 11 10 10 10 10 10 10 10 10 10
14 13 13 13 13 13 13 13 13 13 13 13 13 13 12 12 12 12 12 12 12 12 12 12 12 12 12 11 11 11 11 11 10 10 10 10 10 10 10 9 9 9 9
13 13 13 13 13 13 13 13 12 12 12 12 12 12 12 12 12 12 12 12 12 12 12 12 11 11 11 11 11 11 11 10 10 10 10 10 10 9 9 9 9 9 9
13 13 13 13 12 12 12 12 12 12 12 12 12 12 11 11 11 11 11 12 12 11 11 11 11 11 11 11 11 10 10 10 10 10 10 10 10 9 9 9 9 9 9
13 13 12 12 12 12 12 12 12 11 11 12 11 11 11 11 11 11 11 11 11 11 11 11 11 11 11 11 10 10 10 10 10 10 10 10 9 9 9 9 9 9 9
12 12 12 12 12 12 11 11 11 11 11 11 11 11 11 11 11 11 11 11 11 10 10 10 10 10 10 10 10 10 10 10 9 9 9 9 9 9 9 9 9 8 8
12 12 12 12 11 11 11 11 11 11 11 11 10 10 10 10 10 10 10 10 10 10 10 10 10 10 10 10 10 10 10 10 9 9 9 9 9 9 9 8 8 8 8
12 12 11 11 11 11 11 11 10 10 10 10 10 10 10 10 10 10 10 10 10 10 10 9 9 9 9 9 9 9 9 9 9 9 9 9 9 8 8 8 8 8 8
11 11 11 11 11 10 10 10 10 10 10 10 10 10 10 10 10 9 9 9 9 9 9 9 9 9 9 9 9 9 9 9 9 9 8 8 8 8 8 8 8 8 8
11 11 11 11 10 10 10 10 10 10 10 10 10 9 9 9 9 9 9 9 9 9 9 9 9 8 8 8 8 8 8 8 8 8 8 8 8 8 8 8 8 8 7
11 11 11 10 10 10 10 10 9 9 9 9 9 9 9 9 9 9 9 9 9 9 9 8 8 8 8 8 8 8 8 8 8 8 8 8 8 8 8 7 7 7 7
11 10 10 10 10 10 9 9 9 9 9 9 9 9 9 9 9 9 9 9 8 8 8 8 8 8 8 8 8 8 8 7 7 7 7 7 7 7 7 7 7 7 7
10 10 10 10 10 9 9 9 9 9 9 9 9 9 8 8 8 8 8 8 8 8 8 8 7 7 7 7 7 7 7 7 7 7 7 7 7 7 7 7 7 7 6
10 10 9 9 9 9 9 9 8 8 8 8 8 8 8 8 8 8 8 8 8 8 7 7 7 7 7 7 7 7 7 7 7 7 7 7 6 6 6 6 6 6 6
9 9 9 9 9 9 8 8 8 8 8 8 8 8 8 8 7 7 7 7 7 7 7 7 7 7 7 6 6 6 6 6 6 6 6 6 6 6 6 6 6 6 6
9 9 9 8 8 8 8 8 8 8 7 7 7 7 7 7 7 7 7 7 7 7 7 7 7 6 6 6 6 6 6 6 6 6 6 6 5 5 5 5 5 5 5
8 8 8 8 8 8 8 7 7 7 7 7 7 7 7 7 7 7 7 7 7 6 6 6 6 6 6 6 6 6 5 5 5 5 5 5 5 5 5 5 5 5 5
8 8 8 8 7 7 7 7 7 7 6 7 6 6 6 6 6 6 6 6 6 6 6 6 6 6 6 6 5 5 5 5 5 5 5 5 5 5 5 5 4 4 4
8 8 7 7 7 7 7 6 6 6 6 6 6 6 6 6 6 6 6 6 6 6 6 6 5 5 5 5 5 5 5 5 5 5 4 4 4 4 4 4 4 4 4
7 7 7 7 7 7 6 6 6 6 5 5 5 5 5 5 5 5 5 5 5 5 5 5 5 5 5 5 5 5 5 5 5 4 4 4 4 4 4 4 4 4 4
7 7 7 7 6 6 6 6 6 5 5 5 5 5 5 5 5 5 5 5 5 5 5 5 5 5 5 5 5 4 4 4 4 4 4 4 4 4 4 4 4 4 3
6 6 6 6 6 6 6 5 5 5 5 5 4 4 4 4 4 4 4 4 4 4 4 4 4 4 4 4 4 4 4 4 4 4 4 4 4 4 4 3 3 3 3
6 6 6 6 6 5 5 5 5 5 4 4 4 4 4 4 4 4 4 4 4 4 4 4 4 4 4 4 4 4 4 4 4 4 4 4 4 3 3 3 3 3 3
6 6 5 5 5 5 5 4 4 4 4 4 4 3 3 3 3 3 3 3 3 3 3 3 3 3 4 4 4 4 4 4 4 4 4 3 3 3 3 3 3 3 3
Wind_Speed
1 1 1 1 2 2 1 1 1 0 1 0 1 1 2 2 2 1 1 1 1 1 1 1 1 0 1 0 0 0 0 1 1 1 0 1 1 1 1 2 2 2 1
1 0 1 1 2 1 1 0 1 1 0 1 0 1 1 2 2 2 2 2 2 2 2 1 1 1 1 0 1 1 0 1 2 1 1 0 1 1 1 1 1 1 2
2 1 1 2 2 1 1 1 1 0 1 0 0 0 1 2 1 1 2 1 2 2 3 2 2 2 1 1 1 1 1 1 1 1 1 1 1 1 1 1 1 0 1
2 1 1 2 1 1 2 2 2 1 1 1 1 1 0 0 1 0 1 1 2 2 2 2 2 3 3 3 2 2 1 1 1 1 1 1 1 1 1 1 1 1 1
2 2 1 1 2 2 2 2 2 2 2 1 1 1 1 1 0 0 1 2 2 2 2 1 1 1 2 1 2 2 2 2 1 1 2 1 1 1 1 2 1 1 2
2 1 1 2 2 1 1 1 1 1 1 1 1 1 1 1 2 2 1 2 2 2 2 1 1 1 1 1 1 1 2 3 3 2 2 3 3 2 1 1 1 1 2
2 2 2 2 2 2 1 1 1 1 1 1 1 1 0 0 1 1 2 2 2 2 1 1 2 1 1 1 1 1 1 2 3 3 3 4 3 3 3 2 2 2 3
2 2 1 1 1 2 2 2 2 1 1 1 1 1 1 1 1 1 3 2 2 2 1 1 1 1 0 1 1 2 2 2 3 3 3 3 2 2 3 3 3 2 2
2 2 1 1 1 1 2 2 2 1 2 2 2 2 1 0 1 1 1 2 2 1 1 1 1 0 1 1 1 1 1 2 3 3 2 3 3 3 2 1 1 1 2
2 2 2 2 2 1 2 1 1 1 2 2 2 2 1 0 1 1 1 1 2 2 1 0 1 1 2 1 1 2 2 3 2 2 2 2 3 3 4 3 3 2 2
2 2 2 1 2 1 1 1 1 1 1 2 2 1 1 1 1 0 1 1 1 2 2 1 1 2 2 2 2 2 3 2 2 2 2 2 2 2 3 3 3 3 3
1 2 1 1 1 1 1 1 1 1 2 2 1 1 0 1 1 1 1 2 2 2 2 2 1 2 2 3 3 3 3 2 1 2 2 2 3 3 3 3 3 3 4
2 2 2 1 1 1 1 1 1 1 1 1 1 1 1 0 0 0 1 3 3 2 2 3 3 3 3 2 3 4 3 1 1 2 3 3 3 3 2 2 2 2 3
2 2 2 1 1 1 1 1 0 0 1 1 1 1 1 1 0 0 1 2 3 3 3 3 4 3 2 3 2 2 2 2 2 3 3 3 2 2 2 2 2 2 2
2 2 2 1 1 0 0 0 0 0 1 2 2 1 1 2 1 1 1 1 2 2 2 2 2 1 1 1 1 2 2 2 2 2 2 2 2 2 2 2 1 2 2
2 2 1 1 1 1 1 1 2 1 1 2 2 2 2 2 3 3 3 3 3 3 2 2 2 2 2 2 2 2 3 3 3 3 2 2 3 3 3 2 2 2 3
2 1 1 1 1 1 1 1 1 2 1 2 3 4 4 4 4 4 4 3 3 2 2 3 3 2 2 2 3 3 3 3 3 3 3 3 3 3 3 3 3 3 3
1 1 1 1 1 1 1 1 1 1 2 2 3 4 5 5 5 4 3 1 1 2 3 3 2 2 2 2 2 2 2 2 2 2 3 3 3 3 3 3 3 4 4
1 1 1 1 1 1 1 1 1 2 2 2 2 2 3 4 4 3 2 1 2 3 3 3 3 2 2 2 2 2 2 3 3 3 3 3 3 3 4 4 3 4 4
1 1 1 1 1 1 1 1 1 2 2 2 2 2 2 1 1 2 2 3 3 3 3 3 3 2 2 2 2 2 3 3 3 3 4 4 4 4 4 4 4 4 4
1 1 2 1 1 1 1 1 1 1 2 2 2 2 2 2 2 3 3 3 3 3 3 3 2 2 3 2 2 2 3 3 3 3 4 4 4 4 4 4 4 4 4
2 2 2 2 2 2 2 1 1 2 2 2 2 2 3 2 2 3 3 3 3 3 3 2 3 3 2 2 3 3 3 4 4 4 4 4 4 4 4 4 4 4 4
2 2 2 2 2 2 2 2 2 2 2 2 2 2 2 2 3 3 3 2 2 1 1 1 2 2 2 2 2 2 3 4 4 4 4 4 4 4 4 4 5 4 4
2 2 2 2 2 2 2 2 2 2 2 2 2 2 2 2 2 2 2 2 1 1 1 1 2 3 3 2 2 3 3 4 4 4 5 4 4 4 4 4 4 5 5
2 3 3 2 2 2 2 2 2 2 2 2 2 2 2 2 2 2 2 1 2 2 2 2 2 3 3 4 4 4 5 6 6 5 4 4 4 4 4 5 4 4 4
3 3 2 2 2 2 2 2 2 2 2 2 2 2 2 2 2 2 2 2 2 2 3 2 3 4 4 4 5 6 6 6 6 6 5 4 4 4 4 4 4 4 4
Wind_Direction
120 153 168 144 134 131 142 149 128 67 43 266 143 133 145 151 154 166 182 221 220 254 247 250 260 211 108 124 167 229 228 147 185 272 254 131 94 127 116 134 138 146 145
105 57 47 86 91 109 112 103 121 153 142 269 180 151 169 166 173 173 194 211 207 229 241 235 236 203 168 171 172 206 206 180 162 193 240 169 190 168 163 189 170 165 162
126 116 81 87 78 67 61 48 25 40 82 327 336 80 173 169 192 195 196 210 218 227 232 223 216 179 199 210 191 197 200 136 133 160 216 227 223 169 107 317 310 352 225
134 144 120 109 101 76 61 43 15 9 38 10 340 329 350 242 179 211 248 230 233 247 256 236 220 191 195 201 200 194 164 139 143 152 196 230 226 205 134 226 301 299 290
117 120 119 112 88 70 58 40 13 4 8 6 354 357 4 327 329 56 286 279 251 237 252 258 250 210 193 198 205 192 165 152 164 190 209 219 231 207 221 218 241 258 273
132 132 122 119 116 120 121 97 30 357 335 333 329 331 335 344 24 23 352 301 291 250 242 266 256 182 125 105 106 201 178 183 196 204 222 216 222 212 212 233 234 254 281
142 138 134 141 150 160 159 145 262 257 279 301 299 302 291 29 23 1 339 292 277 262 246 248 274 269 146 169 212 235 253 250 230 219 221 230 215 208 194 214 235 236 251
150 146 136 145 152 163 177 201 234 246 239 251 257 271 256 290 349 338 316 306 284 269 251 249 247 185 321 210 201 211 225 253 253 241 231 240 242 214 194 204 211 230 267
154 163 160 150 172 192 205 221 233 237 243 246 233 248 237 291 348 333 336 298 297 310 3 360 340 270 319 257 208 214 227 256 263 238 240 232 231 232 217 179 214 218 262
172 176 170 169 177 209 216 240 257 235 234 239 237 225 184 157 15 5 341 288 303 316 317 330 355 342 341 7 227 223 240 254 251 250 249 254 232 226 228 208 200 220 258
181 167 170 182 176 187 222 254 256 236 233 241 234 219 183 150 122 267 281 268 283 303 302 293 300 309 309 286 278 251 254 261 245 242 235 233 233 222 228 233 215 199 229
158 167 171 183 196 193 193 257 259 221 229 245 242 276 266 144 135 242 272 270 289 288 292 296 294 286 278 284 287 298 303 304 266 253 249 239 236 233 232 230 234 220 220
159 178 188 194 182 169 189 246 264 219 210 232 216 259 293 329 118 12 300 291 286 279 286 305 314 295 281 280 276 290 300 278 252 252 251 249 240 232 216 217 232 243 255
189 185 190 197 198 190 183 201 233 271 215 216 221 234 267 304 49 35 302 297 295 288 297 305 308 297 275 276 296 286 259 246 236 244 251 252 254 241 228 223 225 229 250
202 193 194 189 166 151 5 304 229 243 214 215 223 225 239 259 265 273 259 274 276 271 299 301 302 317 300 290 278 267 259 256 251 253 252 256 256 250 248 239 225 228 235
223 209 190 182 180 181 166 9 358 281 228 215 211 221 265 259 273 279 275 279 280 265 271 260 256 249 248 251 253 256 254 255 252 246 245 247 249 249 253 256 245 235 240
227 228 198 187 191 207 214 209 301 338 322 269 249 241 238 255 275 281 276 279 277 249 238 246 244 244 252 253 252 251 256 260 255 246 246 250 252 250 246 248 249 249 248
209 233 232 200 193 215 229 239 249 266 293 312 291 254 243 244 256 271 275 292 283 243 234 240 249 252 256 254 256 264 270 274 271 259 253 253 251 253 257 254 249 250 254
202 204 209 212 209 221 223 236 258 268 279 298 327 317 272 252 245 257 232 226 239 248 246 249 251 251 255 255 254 260 271 274 271 263 256 257 252 249 252 253 252 258 254
205 221 235 224 218 223 229 235 255 264 276 280 285 296 309 318 281 259 233 232 237 245 247 243 246 254 259 259 256 253 262 270 273 265 259 253 250 246 246 246 245 249 249
201 220 244 235 219 225 235 242 246 250 260 275 282 286 281 275 255 250 242 239 239 242 243 242 247 253 254 261 263 261 265 268 269 270 263 255 251 251 247 241 240 243 250
209 217 221 220 231 247 249 239 240 251 261 270 284 292 276 273 271 263 253 249 244 236 232 225 233 238 238 241 247 253 262 268 269 266 264 258 250 247 246 245 245 248 248
231 228 226 228 227 240 246 242 241 244 257 268 272 282 278 274 266 265 264 264 259 262 258 240 243 250 249 244 245 244 249 260 266 264 258 255 252 246 245 246 245 248 247
250 243 236 236 231 224 225 235 234 238 246 258 270 277 276 277 278 278 281 280 286 300 305 264 252 252 254 266 267 262 270 278 283 274 261 252 252 251 244 246 245 242 239
257 244 236 232 236 235 227 229 236 245 254 258 260 270 279 281 286 292 293 291 285 279 289 288 265 260 260 266 274 275 274 272 277 286 278 257 248 248 246 244 244 244 241
262 253 243 234 234 235 233 234 241 257 267 273 272 275 285 291 296 295 297 298 293 280 275 280 277 272 265 268 274 274 274 277 277 279 281 260 242 241 244 243 245 243 240
Height
1516 1516 1516 1517 1517 1518 1518 1519 1519 1520 1521 1521 1521 1522 1522 1522 1522 1523 1523 1524 1524 1525 1525 1526 1526 1526 1526 1526 1527 1527 1527 1527 1526 1527 1527 1527 1527 1527 1526 1526 1525 1525 1524
1514 1515 1515 1515 1516 1516 1517 1518 1518 1518 1519 1519 1519 1520 1520 1520 1521 1521 1521 1522 1522 1523 1523 1524 1524 1524 1524 1525 1524 1525 1525 1525 1525 1524 1525 1525 1525 1525 1525 1524 1524 1523 1523
1513 1513 1514 1514 1514 1515 1515 1516 1516 1517 1517 1517 1518 1518 1518 1518 1519 1519 1519 1520 1520 1520 1521 1522 1522 1522 1522 1522 1522 1523 1523 1523 1523 1523 1523 1523 1523 1524 1523 1523 1522 1522 1521
1511 1511 1512 1512 1513 1513 1513 1514 1514 1514 1515 1515 1515 1516 1516 1516 1516 1517 1517 1517 1517 1518 1519 1519 1520 1520 1520 1520 1520 1520 1521 1521 1521 1521 1521 1521 1521 1522 1521 1521 1520 1520 1520
1509 1510 1510 1511 1511 1511 1512 1512 1512 1512 1513 1513 1513 1514 1514 1514 1514 1514 1514 1515 1515 1515 1516 1516 1517 1517 1518 1518 1518 1518 1518 1518 1518 1518 1519 1519 1519 1519 1519 1519 1518 1518 1518
1508 1508 1508 1509 1509 1509 1509 1510 1510 1510 1511 1511 1511 1512 1512 1512 1512 1512 1512 1512 1512 1513 1513 1513 1514 1514 1514 1515 1515 1516 1516 1516 1516 1516 1516 1516 1516 1517 1517 1517 1516 1516 1515
1506 1506 1507 1507 1507 1507 1508 1508 1508 1508 1509 1509 1509 1509 1509 1510 1510 1510 1510 1510 1510 1510 1510 1511 1511 1511 1511 1512 1512 1513 1513 1514 1514 1514 1514 1514 1514 1514 1515 1514 1514 1514 1513
1504 1504 1504 1504 1505 1505 1505 1505 1506 1506 1506 1506 1507 1507 1507 1507 1508 1507 1508 1507 1507 1508 1508 1508 1508 1508 1508 1508 1508 1509 1510 1510 1511 1511 1511 1511 1512 1512 1512 1512 1512 1511 1511
1501 1502 1502 1502 1502 1502 1503 1503 1503 1504 1504 1504 1504 1504 1505 1505 1505 1505 1505 1505 1505 1505 1505 1505 1505 1505 1505 1506 1506 1506 1506 1507 1508 1508 1508 1508 1509 1509 1509 1509 1508 1508 1507
1499 1499 1500 1500 1500 1500 1500 1501 1501 1501 1501 1501 1501 1502 1502 1502 1503 1503 1503 1502 1502 1502 1502 1502 1503 1503 1503 1503 1503 1503 1503 1503 1504 1504 1504 1505 1505 1505 1505 1506 1505 1505 1504
1497 1497 1497 1497 1497 1498 1498 1498 1498 1498 1498 1499 1499 1499 1500 1500 1500 1500 1500 1500 1499 1499 1499 1499 1499 1499 1500 1500 1500 1500 1500 1500 1500 1500 1501 1501 1501 1501 1501 1501 1501 1502 1501
1494 1494 1494 1495 1495 1495 1495 1495 1495 1496 1496 1496 1496 1497 1497 1498 1498 1498 1498 1498 1497 1497 1496 1496 1496 1496 1496 1497 1497 1497 1497 1497 1497 1497 1497 1497 1497 1497 1497 1497 1497 1497 1497
1492 1492 1492 1493 1493 1493 1493 1493 1493 1493 1493 1493 1493 1493 1494 1495 1495 1495 1495 1495 1495 1494 1494 1493 1493 1493 1493 1493 1493 1493 1493 1493 1493 1493 1492 1493 1493 1493 1493 1493 1493 1493 1493
1489 1490 1490 1490 1490 1491 1491 1491 1490 1490 1490 1490 1490 1491 1491 1492 1492 1492 1492 1492 1491 1491 1490 1490 1490 1490 1490 1489 1489 1489 1490 1490 1490 1489 1489 1489 1489 1489 1489 1489 1489 1488 1488
1487 1487 1488 1488 1488 1488 1488 1488 1488 1487 1488 1488 1488 1488 1488 1488 1489 1489 1488 1488 1487 1487 1487 1486 1486 1486 1486 1486 1486 1486 1486 1486 1486 1486 1486 1485 1485 1485 1485 1485 1485 1484 1484
1484 1484 1484 1485 1485 1485 1485 1485 1485 1485 1485 1485 1486 1486 1485 1485 1485 1485 1485 1484 1484 1484 1483 1482 1482 1482 1482 1482 1482 1482 1482 1482 1482 1482 1482 1482 1481 1481 1481 1481 1481 1480 1480
1481 1481 1482 1482 1482 1482 1482 1482 1482 1482 1482 1482 1482 1482 1482 1482 1481 1481 1480 1480 1480 1480 1479 1479 1479 1479 1479 1479 1479 1478 1478 1478 1478 1478 1478 1477 1477 1477 1477 1477 1477 1476 1476
1478 1478 1479 1479 1479 1479 1479 1479 1479 1479 1478 1478 1478 1478 1478 1477 1477 1476 1476 1476 1475 1475 1475 1475 1475 1475 1475 1475 1475 1475 1474 1474 1474 1474 1473 1473 1473 1473 1472 1472 1472 1472 1471
1475 1475 1476 1476 1476 1476 1476 1476 1476 1476 1475 1475 1474 1474 1473 1473 1473 1472 1472 1471 1470 1471 1471 1471 1471 1471 1471 1471 1471 1471 1470 1470 1470 1469 1469 1468 1468 1468 1468 1468 1467 1467 1467
1471 1472 1472 1472 1472 1473 1473 1473 1473 1472 1472 1471 1470 1470 1469 1468 1468 1467 1467 1467 1467 1467 1467 1467 1467 1467 1467 1467 1467 1466 1466 1465 1465 1464 1464 1464 1464 1464 1463 1463 1463 1463 1462
1468 1468 1469 1469 1469 1469 1469 1469 1469 1469 1468 1467 1467 1466 1466 1465 1464 1463 1463 1463 1463 1463 1463 1463 1463 1463 1463 1463 1463 1462 1461 1461 1460 1460 1459 1459 1459 1458 1458 1458 1458 1458 1458
1464 1464 1465 1465 1465 1465 1465 1465 1465 1465 1464 1464 1463 1462 1462 1461 1460 1459 1459 1459 1459 1459 1459 1459 1458 1458 1458 1458 1458 1458 1457 1456 1455 1455 1454 1454 1454 1453 1453 1453 1453 1453 1453
1461 1461 1461 1461 1461 1461 1462 1462 1462 1461 1461 1460 1459 1458 1457 1457 1456 1456 1455 1455 1455 1454 1454 1454 1454 1454 1454 1454 1454 1453 1452 1451 1451 1450 1450 1449 1449 1448 1448 1448 1448 1448 1448
1457 1457 1457 1457 1457 1457 1458 1458 1458 1458 1457 1456 1456 1455 1454 1453 1452 1452 1451 1451 1451 1450 1450 1450 1449 1449 1449 1449 1449 1448 1448 1447 1447 1446 1445 1444 1444 1443 1443 1443 1443 1443 1443
1453 1453 1453 1453 1453 1453 1454 1454 1454 1453 1453 1452 1452 1451 1450 1449 1448 1448 1447 1447 1446 1446 1445 1445 1445 1445 1445 1445 1444 1444 1443 1443 1442 1441 1441 1440 1439 1439 1438 1438 1438 1438 1438
1448 1448 1449 1449 1449 1449 1449 1449 1449 1449 1448 1448 1447 1447 1446 1445 1445 1444 1444 1443 1442 1442 1441 1441 1441 1440 1440 1440 1439 1439 1438 1438 1437 1437 1436 1435 1434 1434 1434 1433 1433 1433 1433